Location: São Paulo
(23.5507°S, 46.6334°W)
Time: 08:22:26
(UTC-03:00)

Vanguard 3 - Pass Details

Date: 24 February 2026
Orbit: 507 x 3205 km, 33.4° (Epoch: 7 March)

Event Time Altitude Azimuth Distance (km) Brightness Sun altitude
Exits shadow 01:50:15 26° 119° (ESE) 2,474 9.8 -50.3°
Drops below altitude 10° 01:54:33 10° 116° (ESE) 3,971 11.1 -49.7°
Sets 01:58:52 0° 114° (ESE) 5,430 11.9 -49.1°
